Theta_e
295 292 291 294 301 305 315 322 326 321 328 329 327 336 343 349 354 357 356 359 359 362 361 360 359 357 358 359 360 360 358 358
294 291 295 299 302 317 320 322 326 325 325 333 340 343 347 352 355 355 355 358 361 361 360 360 359 358 358 359 360 360 359 357
289 294 298 302 305 306 306 319 324 329 324 326 341 349 351 352 354 352 353 357 359 360 360 360 359 358 358 358 359 360 359 358
286 291 300 304 305 304 305 307 325 322 323 325 345 346 348 351 351 353 353 355 357 359 359 359 359 358 357 358 359 360 359 359
283 289 293 301 304 303 304 308 321 325 318 326 339 345 348 350 352 353 354 354 355 355 357 359 358 358 357 357 358 358 358 358
286 288 287 297 298 298 303 305 319 330 324 327 337 345 349 350 352 351 352 353 353 354 355 354 354 358 357 357 357 357 357 357
286 289 290 295 296 301 307 318 332 332 334 337 340 347 345 345 345 347 348 350 353 353 352 351 350 354 356 356 357 356 356 356
292 293 290 295 297 302 302 327 331 332 336 338 342 342 339 339 339 341 343 346 350 352 350 351 352 350 349 351 350 349 348 348
293 296 296 296 297 303 300 313 329 324 332 334 338 338 337 337 339 340 343 345 348 349 349 348 349 350 349 347 347 346 345 344
294 296 295 296 298 299 300 301 331 334 335 334 335 335 335 335 336 338 342 345 345 346 347 345 348 348 347 346 343 342 343 342
298 296 296 298 297 298 299 304 307 334 333 333 334 334 336 336 335 337 338 342 344 343 342 342 347 343 342 342 342 341 340 340
297 297 296 294 296 298 300 305 312 331 330 332 333 333 334 334 331 333 335 337 340 338 334 339 338 337 339 338 339 337 336 338
296 297 296 296 294 295 302 302 305 331 330 332 332 334 333 333 332 332 332 334 334 336 335 336 334 336 335 337 336 335 335 337
293 297 298 297 290 296 300 301 309 327 331 331 335 334 337 338 337 337 337 336 337 339 335 334 332 333 335 335 335 337 336 336
292 297 296 295 289 297 300 302 319 328 327 330 331 335 338 338 336 335 333 335 338 341 342 340 337 335 338 341 339 339 339 340
290 294 297 290 291 295 298 304 323 324 326 328 330 331 336 334 334 334 333 332 333 335 334 335 343 344 344 343 347 346 344 345
293 296 292 292 291 295 297 300 316 323 323 326 325 329 334 333 335 333 333 331 328 330 332 333 333 340 343 344 344 347 348 349
295 298 292 289 292 295 296 297 310 318 321 319 322 325 329 332 332 333 332 332 331 330 332 332 337 340 347 345 346 346 345 344
291 296 295 290 289 292 296 297 299 312 324 322 324 324 322 328 330 332 329 332 327 329 328 335 336 339 344 344 343 341 342 343
294 292 284 292 282 289 293 295 297 301 312 322 323 328 322 323 326 327 326 329 326 328 326 328 332 333 342 339 337 340 340 337
Wind_Speed
5 5 9 6 6 9 3 4 2 3 1 4 8 6 2 10 17 12 15 12 14 17 18 19 19 18 17 16 15 14 14 14
4 10 8 8 7 7 4 2 3 1 5 7 5 4 7 18 19 15 16 14 17 19 19 19 19 18 17 16 15 14 14 13
4 11 5 5 6 2 3 2 3 4 3 6 3 10 17 17 17 16 15 14 14 18 19 20 19 18 17 15 14 14 14 13
10 8 8 6 7 3 3 5 6 4 6 5 7 10 16 14 14 10 15 16 12 16 17 19 19 17 16 16 15 14 13 13
4 14 13 2 9 8 6 5 7 8 4 4 7 9 13 14 9 8 10 14 11 11 13 18 18 18 17 15 14 12 11 10
7 8 6 5 4 4 7 11 7 14 9 7 10 12 13 13 10 10 12 11 11 8 9 8 9 16 15 14 12 11 9 8
6 7 3 4 4 2 6 5 4 11 5 11 21 16 14 14 13 12 11 11 9 10 12 5 5 9 11 13 11 9 8 8
6 5 2 5 3 5 5 1 2 2 5 19 25 20 18 17 16 16 16 14 13 10 12 7 7 5 5 5 3 3 3 4
5 3 4 5 3 4 4 5 6 14 19 21 18 19 18 16 16 15 14 12 13 12 11 7 6 5 3 2 3 3 4 3
3 3 3 4 5 7 6 8 6 12 26 21 20 18 19 17 16 14 13 13 14 12 9 4 4 4 5 3 3 3 4 5
5 7 9 4 7 7 14 10 10 11 15 22 23 23 19 16 15 16 16 12 9 7 5 4 7 3 3 4 4 4 4 5
4 5 5 1 6 6 10 7 8 22 23 24 25 21 12 10 10 11 9 10 14 12 8 7 5 6 5 4 5 4 4 5
6 4 6 8 8 21 18 4 7 21 25 17 16 15 14 9 9 8 6 7 3 8 11 9 8 7 5 5 5 4 5 5
4 11 7 8 19 5 7 6 12 26 22 9 4 10 10 12 11 12 11 8 6 3 1 3 6 6 4 4 4 5 4 4
4 10 7 15 7 9 7 6 11 20 17 13 10 10 10 12 13 13 14 10 8 8 6 4 5 3 4 4 4 4 3 4
8 6 17 7 8 10 4 10 13 17 14 15 15 10 12 12 13 13 13 12 9 5 6 8 10 5 2 2 2 3 5 5
7 7 5 14 1 13 8 3 8 12 14 14 14 8 11 11 12 12 10 10 9 8 6 6 5 10 4 3 2 2 2 6
13 14 6 4 15 11 6 5 11 12 13 13 13 11 10 10 11 13 14 11 9 8 6 9 4 5 7 5 4 2 2 4
8 13 6 4 1 5 6 4 6 8 19 15 22 18 11 13 11 9 9 9 3 10 9 8 9 6 9 6 1 3 2 3
11 7 4 8 5 7 6 7 7 8 12 17 16 13 12 9 8 8 8 5 4 7 8 8 8 5 14 3 2 3 5 6
Wind_Direction
151 180 202 221 181 216 10 100 135 236 58 24 320 344 137 121 141 143 154 151 152 153 146 141 138 140 137 136 133 132 132 131
148 223 243 177 168 122 116 339 341 340 81 328 251 231 147 138 140 148 157 159 154 155 151 145 143 146 145 145 143 141 141 140
222 246 238 196 261 47 128 131 32 333 281 302 38 104 120 136 138 151 159 162 153 157 154 148 148 150 148 148 147 149 152 153
219 244 241 214 169 202 167 246 139 134 157 261 107 124 133 136 132 159 157 162 151 158 157 150 150 154 154 157 161 162 161 160
215 239 254 164 162 210 162 200 221 174 116 261 118 127 128 121 124 155 158 158 149 157 164 158 157 159 161 166 167 168 167 162
218 208 280 167 214 229 157 221 199 174 180 213 137 146 123 116 132 155 166 166 154 150 157 160 164 163 161 169 170 170 166 159
213 189 205 28 82 213 227 173 197 182 157 142 134 137 130 132 151 165 171 174 156 153 164 156 150 169 162 168 168 163 168 170
201 192 222 46 74 324 3 338 324 136 118 147 144 150 155 162 167 177 172 174 173 162 170 155 158 141 124 154 134 143 159 166
268 299 308 128 345 291 307 233 168 203 153 158 153 159 165 172 168 175 177 169 174 174 173 166 149 142 137 137 143 158 175 163
273 326 328 75 343 311 250 227 208 219 167 151 163 176 174 174 177 164 174 174 175 174 169 142 133 157 162 152 156 174 187 174
288 277 275 140 255 243 273 271 263 191 190 166 176 184 185 173 173 170 169 164 162 138 125 124 164 167 165 174 183 185 192 195
270 254 276 228 254 205 252 166 287 173 189 179 186 183 163 158 162 167 161 161 154 154 155 159 170 179 192 195 196 191 192 203
228 169 232 180 262 231 242 254 241 197 192 187 184 169 179 144 135 141 93 114 148 165 163 172 182 188 191 205 198 199 208 207
254 168 233 141 257 259 235 195 254 197 183 146 123 143 122 122 106 99 87 99 92 64 133 252 183 187 198 205 199 215 205 194
324 192 184 191 251 251 226 230 208 175 167 145 120 109 110 117 119 115 110 91 72 66 55 339 286 234 202 205 227 223 200 198
195 219 206 216 237 288 307 167 183 172 166 150 141 137 122 119 125 123 122 122 122 91 64 44 7 298 281 237 277 246 223 220
317 231 210 224 194 257 284 116 151 153 151 150 132 130 130 127 125 126 135 133 136 141 118 73 358 333 268 195 203 251 217 216
291 265 228 188 214 231 230 216 178 163 148 131 133 134 139 156 153 163 170 173 173 162 143 108 53 336 261 269 215 234 213 64
256 323 269 134 276 195 227 245 166 197 155 150 149 153 165 177 184 187 178 198 134 126 103 136 143 229 257 213 233 95 48 44
259 296 241 168 212 216 192 189 170 157 152 156 165 163 157 178 207 196 193 129 136 128 139 214 151 301 247 164 156 37 65 80